This is the latest recevied weather packets stored in our database for station/object WX7FGZ-7. If no packets are shown the sender has not sent any weather packets the latest 10 day(s).
| Time | Temp. | Humidity | Pressure | Rain* | Wind** | Luminosity | Snow |
|---|---|---|---|---|---|---|---|
| 1777821642 | 18.33° C | 37% | 1020.2 hPa | 0 mm | - | - | - |
| 1777819250 | 15.56° C | 37% | 1020.4 hPa | 0 mm | - | - | - |
| 1777819065 | 15.56° C | 37% | 1020.4 hPa | 0 mm | - | - | - |
| 1777818220 | 15° C | 40% | 1020.4 hPa | 0 mm | - | - | - |
| 1777818174 | 15° C | 40% | 1020.4 hPa | 0 mm | - | - | - |
| 1777817865 | 14.44° C | 41% | 1020.3 hPa | 0 mm | - | - | - |
| 1777817575 | 14.44° C | 43% | 1020.2 hPa | 0 mm | - | - | - |
| 1777817516 | 13.89° C | 40% | 1020.1 hPa | 0 mm | - | - | - |
| 1777817277 | 13.89° C | 40% | 1020.1 hPa | 0 mm | - | - | - |
| 1777815690 | 11.11° C | 46% | 1020 hPa | 0 mm | - | - | - |
| 1777815385 | 10.56° C | 45% | 1020 hPa | 0 mm | - | - | - |
| 1777815257 | 10.56° C | 46% | 1019.8 hPa | 0 mm | - | - | - |
| 1777815074 | 10.56° C | 46% | 1019.8 hPa | 0 mm | - | - | - |
| 1777814976 | 10° C | 46% | 1019.9 hPa | 0 mm | - | - | - |
| 1777814840 | 10° C | 46% | 1019.9 hPa | 0 mm | - | - | - |
| 1777814773 | 10° C | 46% | 1019.9 hPa | 0 mm | - | - | - |
| 1777814493 | 10° C | 47% | 1019.8 hPa | 0 mm | - | - | - |
| 1777814464 | 9.44° C | 46% | 1019.8 hPa | 0 mm | - | - | - |
| 1777814172 | 9.44° C | 46% | 1019.8 hPa | 0 mm | - | - | - |
| 1777813893 | 9.44° C | 46% | 1019.9 hPa | 0 mm | - | - | - |
| 1777813189 | 8.89° C | 46% | 1019.7 hPa | 0 mm | - | - | - |
| 1777812890 | 8.89° C | 46% | 1019.7 hPa | 0 mm | - | - | - |
| 1777812859 | 8.89° C | 46% | 1019.7 hPa | 0 mm | - | - | - |
| 1777812835 | 8.89° C | 45% | 1019.5 hPa | 0 mm | - | - | - |
| 1777812559 | 8.89° C | 45% | 1019.5 hPa | 0 mm | - | - | - |
* Rain latest hour (hover to see other rain measurements)
** Current wind speed in m/s (hover to see current wind gust speed)